Tracking 18945 objects as of 21-Jan-2018
HD Live streaming from Space Station
objects crossing your sky now

CZ-3B DEB

Track CZ-3B DEB now!


NORAD ID: 40158
Int'l Code: 2010-042K
Perigee: 977.8 km
Apogee: 41,603.1 km
Inclination: 25.9 °
Period: 763.1 minutes
Semi major axis: 27661 km
RCS: Unknown
Launch date: September 4, 2010
Source: People's Republic of China (PRC)
Launch site: Xichang Space Center, China (XSC)

Note: This is SATELLITE DEBRIS
aabbcc
Your satellite tracking list
Your tracking list is empty




NASA's NSSDC Master Catalog

Two Line Element Set (TLE):
1 40158U 10042K   18020.20250354 -.00000062 +00000-0 +00000-0 0  9996
2 40158 025.8613 265.9010 7343293 233.1084 353.8422 01.88708043028769
Source of the keplerian elements: AFSPC